Date String (YYYY-MM-DD hh:mm:ss) UTC,Instrument flags,Ambient pressure (hPa),Sample flow (lpm),Bypass flow (lpm),Sample temperature (°C),Ambient temperature (°C),ASC tube jacket temperature (°C),LED temperature (°C),Box temperature (°C),Sample RH (%),Span deviation,Mass concentration (μg/m³),Mass concentration (μg/m³),Mass concentration (μg/m³)
DateTimeUTC,F1_M11,P_M11,Q1_M11,Q2_M11,T1_M11,T2_M11,T3_M11,T4_M11,T5_M11,U1_M11,ZSPAN_M11,X0_M11,X2_M11,X1_M11
2022-04-12 03:00:00,,0806.0,4.99,0.00,28.9,27.9,00.0,37.8,30.6,08.1,0000.0,0024.64,0006.25,0002.40
2022-04-12 03:01:00,,0806.0,5.01,0.00,28.9,27.9,00.0,37.8,30.6,08.1,0000.0,0024.21,0006.23,0002.41
2022-04-12 03:02:00,,0805.9,4.99,0.00,28.9,27.9,00.0,37.8,30.6,08.0,0000.0,0024.26,0006.23,0002.43
2022-04-12 03:03:00,,0805.9,5.01,0.00,28.9,27.9,00.0,37.8,30.6,07.8,0000.0,0024.67,0006.28,0002.43
2022-04-12 03:04:00,,0805.9,5.01,0.00,28.9,27.9,00.0,37.8,30.6,07.7,0000.0,0023.73,0006.25,0002.42
2022-04-12 03:05:00,,0805.9,4.99,0.00,28.9,27.9,00.0,37.8,30.6,07.7,0000.0,0023.82,0006.27,0002.43
2022-04-12 03:06:00,,0805.8,5.02,0.00,28.8,27.9,00.0,37.8,30.6,07.5,0000.0,0023.92,0006.22,0002.44
2022-04-12 03:07:00,,0805.7,4.98,0.00,28.8,27.9,00.0,37.8,30.6,07.3,0000.0,0024.85,0006.08,0002.41
2022-04-12 03:08:00,,0805.8,5.01,0.00,28.8,27.9,00.0,37.8,30.6,07.3,0000.0,0024.43,0006.06,0002.40
2022-04-12 03:09:00,,0805.7,5.01,0.00,28.8,27.9,00.0,37.8,30.6,07.3,0000.0,0023.86,0006.04,0002.39
2022-04-12 03:10:00,,0805.7,4.99,0.00,28.8,27.9,00.0,37.8,30.6,07.3,0000.0,0023.96,0006.10,0002.38
2022-04-12 03:11:00,,0805.7,5.00,0.00,28.8,27.9,00.0,37.8,30.6,07.3,0000.0,0024.05,0006.17,0002.38
2022-04-12 03:12:00,,0805.7,5.01,0.00,28.8,27.9,00.0,37.8,30.6,07.1,0000.0,0025.18,0006.14,0002.37
2022-04-12 03:13:00,,0805.7,4.98,0.00,28.8,27.9,00.0,37.8,30.6,07.2,0000.0,0025.81,0006.07,0002.33
2022-04-12 03:14:00,,0805.7,5.00,0.00,28.8,27.9,00.0,37.8,30.6,07.1,0000.0,0026.60,0006.08,0002.32
2022-04-12 03:15:00,,0805.7,4.99,0.00,28.8,27.9,00.0,37.8,30.6,07.1,0000.0,0027.71,0006.05,0002.33
2022-04-12 03:16:00,,0805.7,4.99,0.00,28.8,27.9,00.0,37.8,30.6,07.1,0000.0,0028.04,0006.00,0002.33
2022-04-12 03:17:00,,0805.7,5.02,0.00,28.8,27.9,00.0,37.8,30.6,07.1,0000.0,0028.94,0006.03,0002.33
2022-04-12 03:18:00,,0805.7,4.99,0.00,28.8,27.9,00.0,37.8,30.6,07.1,0000.0,0027.53,0006.03,0002.33
2022-04-12 03:19:00,,0805.7,5.00,0.00,28.8,27.9,00.0,37.8,30.6,07.2,0000.0,0026.98,0005.95,0002.31
2022-04-12 03:20:00,,0805.7,4.99,0.00,28.8,27.9,00.0,37.8,30.6,07.1,0000.0,0026.81,0005.87,0002.29
2022-04-12 03:21:00,,0805.6,4.99,0.00,28.8,27.9,00.0,37.8,30.6,07.1,0000.0,0027.69,0005.85,0002.30
2022-04-12 03:22:00,,0805.5,5.01,0.00,28.8,27.9,00.0,37.8,30.6,07.2,0000.0,0027.90,0005.85,0002.30
2022-04-12 03:23:00,,0805.3,4.98,0.00,28.8,27.9,00.0,37.8,30.6,07.3,0000.0,0026.51,0005.83,0002.30
2022-04-12 03:24:00,,0805.3,5.01,0.00,28.8,27.9,00.0,37.8,30.6,07.3,0000.0,0026.41,0005.88,0002.32
2022-04-12 03:25:00,,0805.3,5.00,0.00,28.8,27.9,00.0,37.8,30.6,07.4,0000.0,0025.64,0005.81,0002.31
2022-04-12 03:26:00,,0805.5,4.99,0.00,28.8,27.9,00.0,37.8,30.6,07.4,0000.0,0024.91,0005.78,0002.31
2022-04-12 03:27:00,,0805.6,5.01,0.00,28.8,27.9,00.0,37.8,30.6,07.6,0000.0,0025.29,0005.80,0002.28
2022-04-12 03:28:00,,0805.6,4.98,0.00,28.8,27.9,00.0,37.8,30.6,08.0,0000.0,0024.62,0005.85,0002.30
2022-04-12 03:29:00,,0805.5,5.01,0.00,28.8,27.9,00.0,37.8,30.6,08.0,0000.0,0023.91,0005.93,0002.34
2022-04-12 03:30:00,,0805.4,5.01,0.00,28.8,27.9,00.0,37.8,30.6,07.5,0000.0,0024.28,0005.99,0002.37
2022-04-12 03:31:00,,0805.3,4.99,0.00,28.8,27.8,00.0,37.8,30.5,07.4,0000.0,0025.02,0006.03,0002.40
2022-04-12 03:32:00,,0805.2,5.00,0.00,28.8,27.8,00.0,37.8,30.5,07.4,0000.0,0025.36,0006.10,0002.43
2022-04-12 03:33:00,,0805.2,5.01,0.00,28.8,27.8,00.0,37.8,30.5,07.4,0000.0,0024.96,0006.05,0002.44
2022-04-12 03:34:00,,0805.2,5.00,0.00,28.8,27.8,00.0,37.8,30.5,07.3,0000.0,0026.51,0006.08,0002.46
2022-04-12 03:35:00,,0805.3,4.99,0.00,28.8,27.8,00.0,37.8,30.5,07.4,0000.0,0026.25,0006.00,0002.47
2022-04-12 03:36:00,,0805.3,5.00,0.00,28.8,27.8,00.0,37.8,30.5,07.3,0000.0,0028.35,0006.03,0002.49
2022-04-12 03:37:00,,0805.3,5.00,0.00,28.8,27.8,00.0,37.8,30.5,07.2,0000.0,0028.17,0006.12,0002.49
2022-04-12 03:38:00,,0805.3,4.99,0.00,28.8,27.8,00.0,37.8,30.5,07.2,0000.0,0028.84,0006.19,0002.50
2022-04-12 03:39:00,,0805.2,5.01,0.00,28.8,27.8,00.0,37.8,30.5,07.1,0000.0,0029.75,0006.14,0002.48
2022-04-12 03:40:00,,0805.1,4.98,0.00,28.8,27.8,00.0,37.7,30.5,07.1,0000.0,0030.51,0006.03,0002.45
2022-04-12 03:41:00,,0805.2,5.01,0.00,28.7,27.8,00.0,37.7,30.5,07.1,0000.0,0030.51,0006.00,0002.45
2022-04-12 03:42:00,,0805.2,4.99,0.00,28.8,27.8,00.0,37.7,30.5,07.2,0000.0,0030.76,0006.04,0002.46
2022-04-12 03:43:00,,0805.2,5.01,0.00,28.8,27.8,00.0,37.7,30.5,07.4,0000.0,0030.13,0006.00,0002.46
2022-04-12 03:44:00,,0805.2,5.01,0.00,28.8,27.8,00.0,37.7,30.5,07.9,0000.0,0030.35,0006.01,0002.46
2022-04-12 03:45:00,,0805.1,4.99,0.00,28.7,27.8,00.0,37.7,30.5,07.8,0000.0,0029.76,0005.98,0002.46
2022-04-12 03:46:00,,0805.1,5.00,0.00,28.7,27.8,00.0,37.7,30.4,07.7,0000.0,0029.31,0006.06,0002.46
2022-04-12 03:47:00,,0805.1,5.01,0.00,28.7,27.7,00.0,37.7,30.4,07.7,0000.0,0027.22,0006.15,0002.47
2022-04-12 03:48:00,,0805.1,5.00,0.00,28.7,27.7,00.0,37.7,30.4,07.7,0000.0,0026.79,0006.10,0002.46
2022-04-12 03:49:00,,0805.1,5.00,0.00,28.7,27.7,00.0,37.7,30.4,07.7,0000.0,0025.79,0006.02,0002.46
2022-04-12 03:50:00,,0805.1,4.99,0.00,28.7,27.7,00.0,37.7,30.4,07.4,0000.0,0024.25,0005.98,0002.47
2022-04-12 03:51:00,,0805.1,5.00,0.00,28.7,27.7,00.0,37.7,30.4,07.4,0000.0,0024.06,0005.99,0002.47
2022-04-12 03:52:00,,0804.9,5.02,0.00,28.7,27.7,00.0,37.7,30.4,07.3,0000.0,0024.68,0006.05,0002.45
2022-04-12 03:53:00,,0804.9,4.99,0.00,28.7,27.7,00.0,37.7,30.4,07.1,0000.0,0024.97,0006.08,0002.45
2022-04-12 03:54:00,,0804.9,5.00,0.00,28.7,27.7,00.0,37.7,30.4,07.3,0000.0,0025.29,0006.11,0002.44
2022-04-12 03:55:00,,0804.9,4.99,0.00,28.7,27.7,00.0,37.7,30.4,07.8,0000.0,0024.29,0006.12,0002.45
2022-04-12 03:56:00,,0804.9,5.01,0.00,28.7,27.7,00.0,37.7,30.4,07.9,0000.0,0023.54,0006.08,0002.46
2022-04-12 03:57:00,,0804.9,4.99,0.00,28.7,27.7,00.0,37.7,30.4,07.9,0000.0,0023.39,0006.05,0002.45
2022-04-12 03:58:00,,0804.8,5.01,0.00,28.6,27.7,00.0,37.7,30.4,07.9,0000.0,0023.68,0005.96,0002.46
2022-04-12 03:59:00,,0804.9,4.99,0.00,28.6,27.7,00.0,37.7,30.4,07.9,0000.0,0023.01,0005.91,0002.49
